Key West International Airport
KEYW : now visible

Airfield :











YOU CAN JOIN US ON...

 
LOGIN :

Register | Disclaimer

   EN    FR    IT 

 









Legend :    VFR   Marginal VFR   IFR   Intensive IFR   Very Intensive IFR
Visi :
Ceiling :
>= 8 km
>= 3000ft
5 to 8 km
1000 to 3000 ft
1500m to 5 km
500 to 1000 ft
800 to 1500m
200 to 500 ft
< 800m
< 200 ft
Symbols :   Thunderstorms  Fog  Heavy snow  Heavy precipitations  Wind > 20 kt






- Airport Elevation : 3 ft
- IATA code : EYW


KEYW - Key West International

CURRENT METAR :
  • 280453Z AUTO 13009KT 10SM CLR 29/25 A3002 RMK AO2 SLP165 T02890250 403060278 $

EXPIRED METARs :
  • 280353Z AUTO 10007KT 10SM FEW009 29/25 A3001 RMK AO2 SLP163 T02890250 $
  • 280253Z AUTO 12009KT 10SM FEW011 29/24 A3002 RMK AO2 SLP165 T02890244 51014 $

TAF KEYW
Valid from the 28 at 06:00 until the 29 at 06:00 UTC


280521Z 2806/2906 12009KT P6SM SCT020
KZMA FIR / North America



MET'MAP, your aeronautical weather chart ! - Copyright ORBIFLY December 2007 - Disclaimer

ORBIFLY MET'MAP TEAM :

Programming & Development : Alexandra Zaïnal
Concept & original design : Baudouin d'Aumeries
Assistance for programming : Marc-Olivier Méhu
Technical & hardware support : Manuel Goepfert

Contact : metmap@orbifly.com




SOURCES & CREDITS :

   NOAA       Earth
Advisory